contact:dominique.lefevre@mio.osupytheas.fr, maurice.libes@osupytheas.fr
Project:EMSO Ligure-ouest http://www.emso-fr.org/EMSO-France
Sensor Aquadopp, line 13 Serial AQD14315 
DOI : "https://doi.org/10.17882/74513; https://doi.org/10.17882/83244" 
Title:EMSO Ligure Ouest : Data ligne ALBATROSS capteur AQUADOPP - deploiement 2021
Id,Date,Profondeur,Latitude,Longitude,X_East,Y_North,Z_Up,Amplitude_X,Amplitude_Y,Amplitude_Z,Batterie,SoundSpeed,Heading,Pitch,Roll,Pressure,Temperature,Speed,Direction
, , m, degrees North, degrees East, m.s-1, m.s-1,m.s-1, 1, 1, 1, Volt, m.s-1, degree, degree, degree, dbar, degree_C, m.s-1, degree
09,2022-03-21T21:30:00,2000.0,42.79,6.0312,-0.001,0.051,-0.002,67.0,62.0,65.0,12.0,1504.6,327.3,-1.1,0.9,1990.545,13.27,0.051,358.9
09,2022-03-21T22:00:00,2000.0,42.79,6.0312,-0.005,0.037,-0.017,67.0,62.0,64.0,12.0,1504.6,330.1,-1.2,0.9,1990.523,13.27,0.037,352.3
09,2022-03-21T22:30:00,2000.0,42.79,6.0312,-0.012,0.018,-0.018,65.0,61.0,69.0,12.0,1504.6,331.9,-1.3,0.9,1990.547,13.27,0.021,326.3
09,2022-03-21T23:00:00,2000.0,42.79,6.0312,-0.018,0.043,0.007,66.0,61.0,63.0,12.0,1504.6,327.2,-1.1,1.0,1990.535,13.27,0.046,337.3
09,2022-03-22T00:00:00,2000.0,42.79,6.0312,-0.023,0.031,-0.008,66.0,60.0,63.0,12.0,1504.6,328.3,-1.1,1.0,1990.521,13.27,0.038,323.4
09,2022-03-22T00:30:00,2000.0,42.79,6.0312,-0.004,0.028,-0.016,65.0,62.0,65.0,12.0,1504.6,329.2,-1.3,1.0,1990.505,13.27,0.028,351.9
09,2022-03-22T01:00:00,2000.0,42.79,6.0312,-0.008,0.023,-0.033,69.0,60.0,65.0,12.0,1504.6,330.6,-1.0,1.0,1990.491,13.27,0.024,340.8
09,2022-03-22T01:30:00,2000.0,42.79,6.0312,-0.012,0.027,-0.009,65.0,61.0,64.0,12.0,1504.6,328.8,-1.1,1.0,1990.438,13.27,0.029,336.0
09,2022-03-22T02:00:00,2000.0,42.79,6.0312,-0.009,0.032,-0.027,64.0,62.0,65.0,12.0,1504.6,327.7,-1.1,1.0,1990.437,13.27,0.033,344.3
09,2022-03-22T02:30:00,2000.0,42.79,6.0312,-0.026,0.022,-0.027,65.0,64.0,63.0,12.0,1504.6,328.8,-1.4,0.8,1990.458,13.27,0.034,310.2
09,2022-03-22T03:00:00,2000.0,42.79,6.0312,0.001,0.056,0.006,65.0,60.0,63.0,12.0,1504.6,337.5,-1.4,0.9,1990.385,13.27,0.056,1.0
09,2022-03-22T03:30:00,2000.0,42.79,6.0312,-0.033,0.037,-0.006,63.0,64.0,65.0,12.0,1504.6,328.3,-0.9,0.9,1990.387,13.27,0.049,318.3
09,2022-03-22T04:00:00,2000.0,42.79,6.0312,-0.03,0.024,0.022,63.0,62.0,62.0,12.0,1504.6,334.9,-0.9,0.9,1990.37,13.27,0.038,308.7
09,2022-03-22T04:30:00,2000.0,42.79,6.0312,-0.026,0.03,0.011,64.0,62.0,61.0,12.0,1504.6,331.2,-1.0,1.1,1990.383,13.27,0.039,319.1
09,2022-03-22T05:00:00,2000.0,42.79,6.0312,-0.021,0.045,-0.001,62.0,59.0,63.0,12.0,1504.6,338.3,-1.1,0.9,1990.39,13.27,0.049,335.0
09,2022-03-22T05:30:00,2000.0,42.79,6.0312,-0.017,0.06,-0.011,64.0,60.0,63.0,12.0,1504.6,332.3,-1.0,1.0,1990.406,13.27,0.062,344.2
09,2022-03-22T06:00:00,2000.0,42.79,6.0312,0.006,0.043,0.042,63.0,59.0,66.0,12.0,1504.6,342.5,-0.9,0.8,1990.4,13.27,0.043,7.9
09,2022-03-22T06:30:00,2000.0,42.79,6.0312,-0.02,0.043,-0.033,66.0,59.0,62.0,12.0,1504.6,321.7,-0.5,1.0,1990.463,13.27,0.047,335.1
09,2022-03-22T07:00:00,2000.0,42.79,6.0312,-0.02,0.038,0.019,62.0,60.0,61.0,12.0,1504.6,326.1,-0.6,1.1,1990.468,13.27,0.042,332.2
09,2022-03-22T07:30:00,2000.0,42.79,6.0312,0.0,0.051,-0.022,64.0,59.0,64.0,12.0,1504.6,323.3,-1.4,0.9,1990.534,13.27,0.051,0.0
09,2022-03-22T08:00:00,2000.0,42.79,6.0312,-0.021,0.05,0.016,64.0,58.0,62.0,12.0,1504.6,326.1,-1.4,0.9,1990.537,13.27,0.054,337.2
09,2022-03-22T08:30:00,2000.0,42.79,6.0312,0.01,0.051,-0.009,65.0,58.0,63.0,12.0,1504.6,327.1,-0.9,0.9,1990.596,13.27,0.051,11.1
09,2022-03-22T09:00:00,2000.0,42.79,6.0312,0.006,0.053,-0.002,64.0,58.0,62.0,12.0,1504.6,327.5,-1.3,0.9,1990.592,13.27,0.053,6.5
09,2022-03-22T09:30:00,2000.0,42.79,6.0312,0.017,0.04,-0.009,65.0,59.0,62.0,12.0,1504.6,327.4,-1.4,0.9,1990.554,13.27,0.043,23.0
09,2022-03-22T10:00:00,2000.0,42.79,6.0312,0.003,0.05,-0.018,64.0,60.0,63.0,12.0,1504.6,326.3,-1.4,1.0,1990.608,13.27,0.05,3.4
09,2022-03-22T10:30:00,2000.0,42.79,6.0312,0.0,0.046,-0.016,65.0,59.0,62.0,12.0,1504.6,331.0,-1.3,0.9,1990.584,13.27,0.046,0.0
09,2022-03-22T11:00:00,2000.0,42.79,6.0312,-0.021,0.024,0.025,59.0,59.0,60.0,12.0,1504.6,333.9,-1.2,0.9,1990.575,13.27,0.031,318.8
09,2022-03-22T11:30:00,2000.0,42.79,6.0312,-0.006,0.027,-0.004,61.0,59.0,62.0,12.0,1504.6,332.6,-1.1,1.0,1990.548,13.27,0.027,347.5
09,2022-03-22T12:00:00,2000.0,42.79,6.0312,-0.012,0.032,-0.006,60.0,58.0,62.0,12.0,1504.6,332.8,-1.1,1.0,1990.55,13.27,0.034,339.4
09,2022-03-22T13:00:00,2000.0,42.79,6.0312,-0.012,0.044,-0.031,63.0,58.0,60.0,12.0,1504.6,330.7,-1.0,1.0,1990.465,13.27,0.045,344.7
09,2022-03-22T13:30:00,2000.0,42.79,6.0312,-0.007,0.03,0.005,62.0,56.0,61.0,12.0,1504.6,339.2,-1.1,0.9,1990.425,13.27,0.03,346.9
09,2022-03-22T14:00:00,2000.0,42.79,6.0312,0.0,0.039,-0.028,61.0,59.0,60.0,12.0,1504.6,337.1,-1.4,0.9,1990.4,13.27,0.039,0.0
09,2022-03-22T14:30:00,2000.0,42.79,6.0312,-0.012,0.046,-0.004,61.0,57.0,59.0,12.0,1504.6,328.3,-1.1,1.0,1990.403,13.27,0.047,345.4
09,2022-03-22T15:00:00,2000.0,42.79,6.0312,-0.014,0.061,-0.01,61.0,55.0,63.0,12.0,1504.6,328.0,-0.8,1.0,1990.378,13.27,0.062,347.1
09,2022-03-22T15:30:00,2000.0,42.79,6.0312,-0.025,0.042,-0.013,60.0,56.0,57.0,12.0,1504.6,332.9,-0.7,0.9,1990.349,13.27,0.048,329.2
09,2022-03-22T16:00:00,2000.0,42.79,6.0312,0.009,0.038,0.012,59.0,58.0,59.0,12.0,1504.6,332.8,-1.3,0.9,1990.384,13.27,0.039,13.3
09,2022-03-22T16:30:00,2000.0,42.79,6.0312,-0.001,0.04,-0.032,60.0,58.0,58.0,12.0,1504.6,333.3,-1.0,0.9,1990.353,13.27,0.04,358.6
09,2022-03-22T17:00:00,2000.0,42.79,6.0312,0.01,0.023,-0.01,63.0,56.0,58.0,12.0,1504.6,337.0,-0.7,1.0,1990.359,13.27,0.025,23.5
09,2022-03-22T17:30:00,2000.0,42.79,6.0312,0.0,0.038,0.009,61.0,57.0,59.0,12.0,1504.6,339.5,-0.9,0.9,1990.355,13.27,0.038,0.0
09,2022-03-22T18:00:00,2000.0,42.79,6.0312,-0.019,0.038,-0.016,60.0,58.0,63.0,12.0,1504.6,335.6,-1.0,0.9,1990.39,13.27,0.042,333.4
09,2022-03-22T18:30:00,2000.0,42.79,6.0312,-0.006,0.026,0.008,65.0,58.0,59.0,12.0,1504.6,330.8,-1.0,0.9,1990.421,13.27,0.026,347.0
09,2022-03-22T19:00:00,2000.0,42.79,6.0312,-0.003,0.017,-0.015,64.0,57.0,61.0,12.0,1504.6,330.7,-1.2,1.0,1990.42,13.27,0.017,350.0
09,2022-03-22T19:30:00,2000.0,42.79,6.0312,-0.028,0.024,0.031,62.0,59.0,58.0,12.0,1504.6,335.0,-1.1,0.9,1990.478,13.27,0.036,310.6
09,2022-03-22T20:00:00,2000.0,42.79,6.0312,-0.024,0.034,-0.009,62.0,57.0,61.0,11.9,1504.6,332.3,-1.1,0.9,1990.487,13.27,0.041,324.8
09,2022-03-22T20:30:00,2000.0,42.79,6.0312,-0.019,0.03,0.012,62.0,59.0,62.0,12.0,1504.6,331.4,-0.8,1.0,1990.474,13.27,0.035,327.7
09,2022-03-22T21:00:00,2000.0,42.79,6.0312,-0.023,0.043,0.0,61.0,59.0,57.0,11.9,1504.6,324.4,-0.9,1.0,1990.486,13.27,0.048,331.9
